It's Monday,
October 14th, 2019
User not logged in
[Run Race Header Image][Run Race logo]
  
Race webcasting is attempted by race directors and their support staff. Please remember that conditions under which they're working may make it difficult to post timely webcast updates... your interest and patience is appreciated!
Race Information
Race Name:2nd Annual Indiana Trail 100
Location:Albion
State:Indiana, United States
 button: button: Webcast Autoplay
Event Information
Name of Event:100 Mile Trail
Distance:100 Miles
Started Date/Time:Saturday April 26th, 2014, 5:59:34.15 am
button: Assign Numbers  
Checkpoint:JD5
Distance:75.48 Miles
Gun Start Time:Saturday April 26th, 2014 5:59:34.15 am
Calculate Chip Start Time:< not set >
Y or N... Calculate splits based upon participant chip start time?
Allow Early Chip Start Time:< not set >
Y or N... Allow participants a chip start time prior to gun start?
Pos Race
Number
NameAgeSexTimePace 
1141Shan Riggs35M12:41:05.310:05.0Sat Apr 26th, 2014 6:40:39 pm
2166Jim Trout44M12:41:36.710:05.4Sat Apr 26th, 2014 6:41:10 pm
314John Bertram51M12:59:52.710:19.9Sat Apr 26th, 2014 6:59:26 pm
4148Travis Shields37M13:24:10.810:39.3Sat Apr 26th, 2014 7:23:45 pm
534Vincent Corona30M13:24:57.610:39.9Sat Apr 26th, 2014 7:24:31 pm
6182Craig Wheeler52M13:38:46.310:50.9Sat Apr 26th, 2014 7:38:20 pm
7151Jen Skelly34F13:41:46.110:53.2Sat Apr 26th, 2014 7:41:20 pm
8158Paul Stofko38M13:45:21.810:56.1Sat Apr 26th, 2014 7:44:56 pm
941Paul Dott31M13:55:22.211:04.0Sat Apr 26th, 2014 7:54:56 pm
10149Todd Siebert32M14:06:12.311:12.7Sat Apr 26th, 2014 8:05:46 pm
1126Jessica Campbell21F14:06:27.311:12.9Sat Apr 26th, 2014 8:06:01 pm
12127Daniel Paige34M14:37:59.411:37.9Sat Apr 26th, 2014 8:37:33 pm
1320Erin Brady42F14:47:58.711:45.9Sat Apr 26th, 2014 8:47:32 pm
14140Kirk Ridenour54M14:56:06.511:52.3Sat Apr 26th, 2014 8:55:40 pm
1579David E. Jackson36M15:06:58.412:01.0Sat Apr 26th, 2014 9:06:32 pm
16104David Mentjes44M15:13:32.312:06.2Sat Apr 26th, 2014 9:13:06 pm
1787Ryan "Stormy" Knight37M15:23:42.512:14.3Sat Apr 26th, 2014 9:23:16 pm
1868Shawn Hawk49M15:29:49.712:19.1Sat Apr 26th, 2014 9:29:23 pm
1944Tanya Eggert44F15:35:17.312:23.5Sat Apr 26th, 2014 9:34:51 pm
2028Tony Cesario50M15:53:02.112:37.6Sat Apr 26th, 2014 9:52:36 pm
2146Mike Else45M15:56:55.912:40.7Sat Apr 26th, 2014 9:56:30 pm
22162Mark Thill38M16:02:34.312:45.2Sat Apr 26th, 2014 10:02:08 pm
23113SIAMAK MOSTOUFI39M16:03:27.512:45.9Sat Apr 26th, 2014 10:03:01 pm
2424todd brown45M16:03:27.612:45.9Sat Apr 26th, 2014 10:03:01 pm
25115Carolynn Nauta32F16:10:28.412:51.4Sat Apr 26th, 2014 10:10:02 pm
2650Linda Keuneke50F16:12:19.912:52.9Sat Apr 26th, 2014 10:11:54 pm
27183Anastasia Andrychowski34F16:14:37.812:54.7Sat Apr 26th, 2014 10:14:11 pm
28133Richard Plezia55M16:27:28.913:05.0Sat Apr 26th, 2014 10:27:03 pm
29134dave potter49M16:30:46.613:07.6Sat Apr 26th, 2014 10:30:20 pm
30181Rene Samano28M16:32:45.213:09.2Sat Apr 26th, 2014 10:32:19 pm
31123Reggie O'HARA45M16:35:37.413:11.4Sat Apr 26th, 2014 10:35:11 pm
32114Larry Mullinnix49M16:36:34.013:12.2Sat Apr 26th, 2014 10:36:08 pm
33116David Nelson26M16:38:35.113:13.8Sat Apr 26th, 2014 10:38:09 pm
34125Jeff Oliver40M16:41:18.113:15.9Sat Apr 26th, 2014 10:40:52 pm
35154Mike Smith56M16:41:46.813:16.3Sat Apr 26th, 2014 10:41:21 pm
3662Martin Guthrie47M16:44:41.713:18.6Sat Apr 26th, 2014 10:44:15 pm
3754Tom Fifer51M16:49:07.913:22.2Sat Apr 26th, 2014 10:48:42 pm
38177Eric Fritz46M16:50:28.113:23.2Sat Apr 26th, 2014 10:50:02 pm
3940Noe j Dominguez45M16:51:12.113:23.8Sat Apr 26th, 2014 10:50:46 pm
4036John Cushma40M16:54:15.313:26.2Sat Apr 26th, 2014 10:53:49 pm
4157Mark Gavorski48M16:57:16.113:28.6Sat Apr 26th, 2014 10:56:50 pm
4272Rich Henderson58M16:58:49.413:29.9Sat Apr 26th, 2014 10:58:23 pm
4342Michael Dowdell38M17:10:29.113:39.1Sat Apr 26th, 2014 11:10:03 pm
44103Chris McMahon54M17:15:22.513:43.0Sat Apr 26th, 2014 11:14:56 pm
4551Dan Fabish18M17:22:11.413:48.4Sat Apr 26th, 2014 11:21:45 pm
46126Julie Pagel29F17:29:44.913:54.5Sat Apr 26th, 2014 11:29:19 pm
4791Bill Kulwicki55M17:38:19.414:01.3Sat Apr 26th, 2014 11:37:53 pm
4856Helen Garen49F17:38:20.014:01.3Sat Apr 26th, 2014 11:37:54 pm
49108Joshua Mock32M17:41:10.414:03.5Sat Apr 26th, 2014 11:40:44 pm
5076Scott Hudson46M17:44:00.914:05.8Sat Apr 26th, 2014 11:43:35 pm
51171Marci Wease37F17:53:47.114:13.6Sat Apr 26th, 2014 11:53:21 pm
5263Jerret Halter32M17:55:31.014:14.9Sat Apr 26th, 2014 11:55:05 pm
53107Kirk Misaka55M17:55:50.214:15.2Sat Apr 26th, 2014 11:55:24 pm
5473Jeff Hogan45M17:57:38.914:16.6Sat Apr 26th, 2014 11:57:13 pm
55156Phil Stapert47M17:58:03.614:17.0Sat Apr 26th, 2014 11:57:37 pm
5683Chris Junken35M17:59:34.114:18.2Sat Apr 26th, 2014 11:59:08 pm
5717Andrew Borst43M18:00:25.514:18.8Sat Apr 26th, 2014 11:59:59 pm
588Brian Barger53M18:11:26.414:27.6Sun Apr 27th, 2014 12:11:00 am
5921Bob Brashear55M18:13:02.114:28.9Sun Apr 27th, 2014 12:12:36 am
6039Nathan DeWall34M18:16:12.214:31.4Sun Apr 27th, 2014 12:15:46 am
61178Joe Cuthbertson39M18:28:07.814:40.9Sun Apr 27th, 2014 12:27:41 am
6266Dick Canterbury66M18:31:10.414:43.3Sun Apr 27th, 2014 12:30:44 am
63130Alfredo ''Moose'' Pedro45M18:34:10.114:45.7Sun Apr 27th, 2014 12:33:44 am
64159Steve Sunbury44M18:35:35.714:46.8Sun Apr 27th, 2014 12:35:09 am
65143Matthew Santner37M18:36:59.614:47.9Sun Apr 27th, 2014 12:36:33 am
66146Rob Schultz47M18:49:08.914:57.6Sun Apr 27th, 2014 12:48:43 am
67174Randall Yost55M18:49:21.714:57.7Sun Apr 27th, 2014 12:48:55 am
68121Mark Norfleet57M18:52:37.315:00.3Sun Apr 27th, 2014 12:52:11 am
6925Aaron Butler32M18:53:38.715:01.1Sun Apr 27th, 2014 12:53:12 am
7099Daniel Maddox38M18:53:46.015:01.2Sun Apr 27th, 2014 12:53:20 am
7152Jamie Farley35M19:16:33.415:19.4Sun Apr 27th, 2014 1:16:07 am
725LEE ANDERSON56M19:16:51.215:19.6Sun Apr 27th, 2014 1:16:25 am
7316toni bohannon46F19:25:56.615:26.8Sun Apr 27th, 2014 1:25:30 am
742Kurt Adams35M19:34:20.115:33.5Sun Apr 27th, 2014 1:33:54 am
7564Cindylee Torres54F19:42:25.915:39.9Sun Apr 27th, 2014 1:42:00 am
7678Lauren Idzik43F19:43:19.615:40.6Sun Apr 27th, 2014 1:42:53 am
7786John Klarquist49M19:46:35.715:43.2Sun Apr 27th, 2014 1:46:09 am
7848Karen Erba44F19:51:35.915:47.2Sun Apr 27th, 2014 1:51:10 am
796Ric Angara43M19:55:12.915:50.1Sun Apr 27th, 2014 1:54:47 am
8031Mark Coates33M19:55:16.015:50.1Sun Apr 27th, 2014 1:54:50 am
81124Ethan Olds24M19:55:17.415:50.2Sun Apr 27th, 2014 1:54:51 am
8274Alex "ACE" Honigford33M20:03:23.815:56.6Sun Apr 27th, 2014 2:02:57 am
8393John Leighton53M20:03:38.515:56.8Sun Apr 27th, 2014 2:03:12 am
84105Craig Meseko29M20:04:04.115:57.1Sun Apr 27th, 2014 2:03:38 am
85169Chris Walker34M20:04:15.115:57.3Sun Apr 27th, 2014 2:03:49 am
8669Kent Heck52M20:13:28.316:04.6Sun Apr 27th, 2014 2:13:02 am
8733Aaron Conner41M20:17:26.116:07.8Sun Apr 27th, 2014 2:17:00 am
8853Ramon Ferrer Jr34M20:19:45.616:09.6Sun Apr 27th, 2014 2:19:19 am
89120Caleb Nolen28M20:21:27.516:11.0Sun Apr 27th, 2014 2:21:01 am
9082Juan Juarez42M20:21:46.016:11.2Sun Apr 27th, 2014 2:21:20 am
91101Sondra Marker50F20:24:01.316:13.0Sun Apr 27th, 2014 2:23:35 am
9270Mike Heider54M20:28:42.416:16.7Sun Apr 27th, 2014 2:28:16 am
9338James Davidson51M20:29:40.216:17.5Sun Apr 27th, 2014 2:29:14 am
94150Robert Siscoe59M20:40:23.016:26.0Sun Apr 27th, 2014 2:39:57 am
953Justin Alford40M20:40:25.216:26.0Sun Apr 27th, 2014 2:39:59 am
9612Richard Barton61M20:42:39.316:27.8Sun Apr 27th, 2014 2:42:13 am
979Crystal Barton38F20:42:41.516:27.8Sun Apr 27th, 2014 2:42:15 am
9847David Englund46M21:10:31.416:50.0Sun Apr 27th, 2014 3:10:05 am
99122Terry Null55M21:19:38.516:57.2Sun Apr 27th, 2014 3:19:12 am
100137Jamie Quarandillo40F21:22:09.816:59.2Sun Apr 27th, 2014 3:21:43 am
101176Stan Zygmunt51M21:23:12.617:00.0Sun Apr 27th, 2014 3:22:46 am
102138Frank Rampton57M21:32:36.217:07.5Sun Apr 27th, 2014 3:32:10 am
103173Michael Wolff41M21:32:39.017:07.5Sun Apr 27th, 2014 3:32:13 am
104111James Cooper44M21:51:36.217:22.6Sun Apr 27th, 2014 3:51:10 am
10515sandra bocchicchio41F22:30:25.817:53.5
106167Ali Turfe50M25:26:24.020:13.4Sun Apr 27th, 2014 7:25:58 am
107172Kenneth Westerman55M27:15:56.721:40.4Sun Apr 27th, 2014 9:15:30 am

Event Information
Name of Event:50 Mile Trail
Distance:50 Miles
Started Date/Time:Saturday April 26th, 2014, 5:59:34.15 am
button: Assign Numbers 
2004-2019 : All rights reserved
Terms and Conditions